Temperature
21 19 18 18 19 20 20 20 19 20 21 20 19 18 18 18 18 18 18 17 17 17 18 18 18 18 17 17 17 17 17 16 16 16 16 16 15 15 15 15 15 14 14 14
19 18 20 20 21 21 20 20 19 20 21 20 18 18 18 18 18 18 17 17 17 17 17 17 17 17 17 17 17 17 16 16 16 16 16 15 15 15 15 14 14 14 14 14
19 20 21 21 21 21 20 19 20 20 20 20 19 18 17 17 18 18 18 18 18 17 17 17 17 17 17 17 17 17 16 16 16 16 15 15 15 15 14 14 14 14 14 14
19 20 21 21 21 21 20 21 21 20 19 17 19 17 17 17 16 17 17 17 17 17 17 17 17 17 17 17 17 16 16 16 16 16 15 15 15 15 14 14 14 14 13 13
19 20 21 21 21 21 20 21 21 20 19 18 18 17 16 16 16 16 17 18 18 18 17 17 17 17 17 17 16 16 16 16 16 15 15 15 15 14 14 14 14 14 13 13
20 21 21 21 22 22 21 20 19 17 17 17 17 17 16 16 17 17 17 17 18 17 17 17 17 17 17 17 16 16 16 16 15 15 15 15 14 14 14 14 13 13 13 13
19 20 21 21 21 21 19 17 17 17 16 16 17 17 17 17 17 18 17 18 18 17 17 17 17 17 16 16 16 16 16 16 15 15 15 14 14 14 14 14 13 13 13 13
18 18 20 21 20 20 19 17 16 17 16 16 17 17 17 18 18 19 19 18 18 17 17 17 17 17 16 16 16 16 16 15 15 15 15 14 14 14 13 13 13 13 13 13
17 18 20 21 21 20 19 17 17 16 17 16 16 17 18 18 18 17 18 18 17 17 17 17 17 17 16 16 16 16 15 15 15 14 14 14 14 14 13 13 13 13 13 12
18 18 19 20 21 20 20 18 16 16 16 16 17 17 17 17 17 17 16 17 17 17 17 17 17 17 16 16 16 15 15 15 15 14 14 14 13 13 13 13 13 12 12 12
18 17 18 19 19 19 19 19 17 15 15 16 16 16 18 17 17 16 16 17 17 17 17 17 17 16 16 16 15 15 15 14 14 14 14 13 13 13 13 13 12 12 12 12
17 15 16 17 18 19 19 18 17 16 16 15 15 16 18 17 17 17 17 17 17 17 17 17 16 16 16 15 15 15 15 14 14 14 13 13 13 13 13 12 12 12 12 12
17 15 15 16 17 18 19 18 17 15 14 14 15 16 17 16 16 17 17 17 17 17 17 16 16 16 16 15 15 15 14 14 14 13 13 13 13 13 12 12 12 12 12 12
16 14 15 16 16 17 18 18 18 16 15 15 15 16 16 16 16 16 16 16 16 16 16 16 16 15 15 15 15 15 14 14 14 13 13 13 13 12 12 12 12 12 12 11
16 15 15 16 16 17 17 18 18 17 16 15 15 16 16 16 16 16 16 16 16 15 15 15 15 15 15 15 14 14 14 14 13 13 13 13 12 12 12 12 12 12 11 11
14 15 15 16 17 17 17 17 17 17 16 16 16 15 16 16 16 16 16 15 15 15 15 15 15 15 15 14 14 14 14 13 13 13 13 12 12 12 12 12 11 11 11 11
13 14 14 14 15 16 15 16 16 16 16 16 15 15 15 14 14 15 15 15 15 15 15 15 15 15 14 14 14 14 14 13 13 13 12 12 12 12 11 11 11 11 11 11
13 13 12 13 14 14 15 16 16 16 16 16 15 15 15 15 15 15 16 16 15 15 15 15 15 15 14 14 14 14 13 13 13 12 12 12 12 11 11 11 11 11 10 10
13 13 12 12 13 14 15 16 16 16 15 15 15 14 14 15 14 14 15 15 15 15 15 14 14 14 14 14 13 13 13 13 12 12 12 11 11 11 11 11 10 10 10 10
13 12 12 12 13 13 14 16 17 15 14 14 14 14 14 14 12 12 14 15 15 14 14 14 14 14 13 13 13 13 12 12 12 12 11 11 11 11 11 10 10 10 10 9
13 12 12 12 12 13 14 15 16 15 14 15 15 14 14 13 13 14 14 14 14 14 14 14 13 13 13 13 12 12 12 11 11 11 11 11 10 10 10 10 9 9 9 9
12 12 11 11 12 13 14 15 14 14 15 15 15 15 14 14 14 14 14 13 13 13 13 13 13 12 12 12 12 12 11 11 11 10 10 10 10 10 9 9 9 9 8 8
12 12 11 12 12 13 15 15 16 16 15 15 15 14 14 14 13 13 13 13 12 12 12 12 12 12 12 11 11 11 11 10 10 10 10 10 9 9 9 8 8 8 8 8
12 12 11 11 12 13 14 15 15 16 15 15 15 14 14 14 13 12 12 12 12 11 11 11 11 11 11 11 11 10 10 10 10 10 9 9 9 9 8 8 8 8 8 8
12 11 11 11 11 12 14 14 15 15 15 14 14 14 14 13 13 12 12 11 11 11 11 11 11 10 10 10 10 10 10 9 9 9 9 9 8 8 8 7 7 7 7 7
11 11 11 11 12 11 13 14 14 14 14 14 14 13 13 13 12 12 11 11 11 10 10 10 10 10 10 10 9 9 9 9 9 9 8 8 8 8 7 7 7 7 7 7
Wind_Speed
0 3 3 7 8 6 4 3 4 5 4 3 4 5 5 4 4 5 5 6 7 7 6 5 6 6 6 5 6 5 6 4 4 3 3 3 2 1 1 2 4 4 5 6
3 4 8 6 5 4 4 3 4 4 2 3 4 4 4 4 6 8 8 7 8 6 4 5 5 6 6 6 6 6 6 5 5 4 3 2 3 2 1 1 3 4 5 5
6 6 5 3 3 3 4 5 5 5 2 1 1 4 4 4 3 4 6 7 8 9 9 7 6 6 6 6 6 6 6 6 5 5 4 3 3 2 2 1 1 1 3 4
5 6 4 3 4 4 5 5 5 4 1 3 2 3 6 4 3 5 6 6 8 7 8 8 7 7 7 7 6 6 6 6 6 6 6 5 3 2 2 2 2 1 2 4
5 4 3 4 5 4 6 5 3 3 2 1 1 2 7 1 3 6 7 8 8 8 9 9 10 10 8 7 6 6 6 6 5 6 6 6 4 2 1 1 2 1 1 2
6 4 3 4 4 4 2 2 3 4 3 2 5 5 5 4 6 5 6 7 7 8 8 7 8 7 6 5 5 5 6 5 5 6 6 6 6 4 3 2 2 2 1 1
5 5 3 2 1 2 3 4 3 3 2 5 3 3 6 6 5 6 8 8 7 7 8 7 7 7 7 7 6 6 7 5 5 6 5 6 6 6 6 4 3 2 1 1
2 5 4 3 5 4 3 7 6 4 4 4 2 4 5 4 3 3 5 6 7 7 8 8 9 8 8 8 8 7 7 5 5 5 5 5 5 4 4 4 3 3 3 3
4 5 4 3 3 6 3 4 6 5 2 2 4 3 4 2 2 1 4 5 6 7 8 8 8 8 8 9 8 8 8 6 6 5 5 4 4 4 4 3 3 3 3 3
5 4 5 3 0 1 5 6 4 3 2 2 4 3 4 4 3 2 3 5 6 6 7 7 7 7 7 8 7 7 7 8 6 6 5 5 4 4 4 3 3 3 3 3
3 3 4 2 3 4 2 2 4 3 4 4 3 5 4 6 5 5 5 5 5 7 7 7 7 7 7 6 7 6 6 6 5 6 5 4 4 4 4 4 4 4 3 3
2 3 3 6 6 4 5 5 6 4 3 4 3 6 4 3 3 4 5 4 4 5 6 6 6 6 5 6 6 6 6 6 7 6 6 5 4 4 4 4 4 4 4 4
3 4 1 5 5 3 0 2 4 5 4 4 4 5 2 0 1 2 3 3 2 3 4 4 4 5 6 6 6 6 6 6 6 6 5 5 4 5 5 5 5 4 4 4
4 4 5 7 6 3 4 4 3 5 4 4 6 6 4 3 3 2 2 3 3 3 4 4 3 3 4 5 5 6 5 5 5 5 6 5 5 6 5 4 4 4 4 4
4 3 4 5 5 4 4 6 4 5 7 7 7 7 8 7 6 5 3 3 4 3 3 4 4 3 3 3 3 4 4 4 5 5 5 6 5 5 4 4 4 3 3 4
3 3 1 4 5 4 4 5 5 5 5 6 5 6 5 3 3 3 3 5 5 4 4 4 4 4 4 4 4 3 4 4 5 5 6 5 5 4 4 4 4 3 3 3
2 4 1 4 6 5 5 5 5 4 3 5 7 7 3 2 4 4 4 4 5 5 4 4 4 4 4 4 4 4 5 4 4 5 5 5 5 5 4 4 3 3 3 2
5 4 3 2 2 5 6 3 3 3 2 3 3 3 5 5 4 3 3 4 4 3 3 3 3 3 3 3 3 3 3 3 3 3 4 4 4 4 4 3 3 3 2 2
6 6 4 3 3 5 6 4 2 3 3 2 3 3 3 3 3 2 0 2 4 4 4 3 3 2 2 2 3 3 2 2 2 3 3 4 4 4 3 4 4 3 3 3
3 5 5 4 3 6 7 5 2 3 2 4 3 4 4 5 2 4 3 1 1 1 2 3 2 2 2 2 3 4 2 2 3 4 4 4 4 4 4 4 4 3 3 3
2 2 4 5 5 6 7 4 2 3 6 4 3 4 5 5 5 4 2 1 1 2 2 3 3 3 2 2 4 4 2 3 3 3 3 3 3 4 4 3 3 2 2 2
6 5 5 5 5 7 4 2 4 6 3 3 3 3 4 3 2 3 3 2 2 2 2 3 3 2 1 2 4 3 2 3 2 1 2 2 2 2 2 3 2 2 3 2
5 7 6 7 7 5 3 5 4 4 4 3 3 3 4 4 3 3 3 3 1 1 2 2 3 2 1 1 3 3 2 2 2 2 2 2 1 1 2 3 2 2 2 2
3 2 3 2 4 3 3 2 2 3 4 4 4 4 4 4 3 3 3 2 1 0 1 1 3 2 1 1 1 1 1 2 3 3 2 2 2 1 1 2 2 2 2 2
5 2 2 3 3 2 3 2 2 2 2 3 3 4 5 4 4 4 3 2 2 1 0 1 3 2 0 0 1 0 1 2 3 2 2 2 2 2 2 1 1 2 2 2
4 5 6 7 7 5 5 5 3 4 4 4 4 3 3 4 4 3 3 2 2 2 1 2 2 2 1 1 1 1 1 2 3 2 2 2 2 2 3 2 1 2 2 2
Wind_Direction
272 98 217 223 210 205 202 212 243 245 229 174 205 230 238 211 174 189 190 182 181 191 191 175 164 158 148 139 138 133 124 125 124 116 120 116 125 121 84 74 86 100 108 111
31 253 241 230 229 217 209 228 252 272 242 186 203 242 245 222 202 196 195 191 187 181 171 173 163 150 152 157 155 146 143 144 143 138 141 145 147 148 140 77 81 105 113 113
205 243 240 220 233 237 233 210 224 232 272 323 109 312 284 261 224 205 203 195 188 182 180 181 168 162 159 162 165 162 157 150 145 130 114 99 80 72 67 75 70 79 119 112
242 249 242 240 240 220 252 234 218 222 178 260 174 278 280 246 250 229 218 202 197 191 180 178 174 173 175 178 174 160 159 152 146 139 134 135 134 145 194 174 158 127 116 115
255 239 213 231 230 198 225 228 229 230 185 283 270 194 285 295 255 241 217 204 199 191 180 178 182 183 180 172 168 164 160 152 149 150 150 145 133 148 139 131 143 145 154 132
251 248 203 210 220 199 204 22 14 45 79 287 241 185 269 247 225 224 208 202 194 187 180 180 181 173 168 158 155 154 157 156 153 151 152 151 150 148 137 145 163 178 205 212
296 291 254 200 168 350 83 83 23 358 6 251 245 185 245 248 225 196 191 193 187 175 171 174 171 169 166 161 160 158 156 158 160 158 161 162 162 164 169 172 179 175 184 217
242 281 253 208 188 199 191 146 165 201 224 267 298 228 258 268 245 185 172 169 160 162 169 175 179 177 172 170 167 164 162 160 164 168 175 171 165 168 180 185 186 188 199 214
197 259 281 242 191 162 170 191 178 158 222 253 277 286 316 352 5 92 143 150 165 170 174 177 178 176 173 172 174 173 170 167 174 174 170 172 173 169 180 196 197 197 205 213
176 253 282 276 51 217 172 166 112 132 180 246 278 259 236 239 246 206 176 180 185 175 175 176 178 179 177 178 177 174 174 179 181 175 175 178 185 180 183 183 197 206 207 204
143 189 298 333 199 215 170 156 138 147 170 174 242 265 233 208 200 182 193 197 189 180 179 180 183 183 177 174 173 176 179 177 177 180 183 181 190 189 186 189 202 207 199 191
136 135 251 264 266 220 185 187 154 167 223 182 190 263 282 208 187 178 191 197 190 182 177 176 174 171 171 175 179 182 186 186 187 187 185 189 192 191 191 205 214 207 199 204
117 110 45 331 332 346 198 195 167 153 148 179 193 253 306 53 180 187 186 185 176 166 158 155 160 172 180 184 188 193 196 198 195 184 183 192 197 196 202 212 215 209 200 203
116 123 172 203 227 251 269 270 204 149 170 203 213 229 259 251 239 231 201 181 160 154 157 157 169 186 188 190 191 192 200 197 192 186 189 197 206 207 206 204 199 203 197 195
111 167 216 237 257 260 257 262 243 208 197 201 220 222 237 226 216 205 192 162 141 141 155 171 181 194 193 186 193 196 199 195 186 183 193 203 203 201 195 195 197 202 200 209
104 169 241 290 283 284 284 280 260 245 221 211 222 250 246 224 162 165 173 160 160 173 186 189 185 186 195 195 193 192 193 194 183 186 202 202 192 189 192 196 193 194 203 211
153 147 156 272 298 328 284 255 229 227 221 197 221 236 212 163 167 183 185 169 170 181 190 196 198 200 206 205 194 197 203 195 183 194 201 196 191 195 202 198 187 199 211 201
164 152 159 227 343 247 251 265 206 192 252 217 193 201 186 186 184 173 169 169 174 175 181 201 205 204 204 197 187 188 179 173 182 194 203 195 189 195 192 179 188 209 210 205
171 158 156 161 216 270 286 273 207 187 277 291 175 160 152 124 67 14 358 161 176 186 190 195 193 184 174 179 173 148 141 150 168 194 199 195 185 185 181 185 200 206 197 206
117 133 146 159 194 235 248 261 231 121 260 266 169 157 157 120 146 254 250 184 131 129 163 167 160 134 128 172 148 139 155 162 202 213 207 198 185 181 191 202 205 202 191 200
111 120 164 183 216 255 256 267 106 172 235 227 174 168 167 179 205 216 176 130 125 117 116 128 126 129 157 155 134 140 157 199 227 220 201 193 189 184 188 190 181 170 175 173
181 177 187 168 198 246 251 154 181 214 211 180 173 170 165 172 146 142 139 130 111 100 93 112 122 123 126 132 134 148 198 224 205 151 151 171 179 179 166 161 166 164 164 165
199 195 188 190 212 236 220 205 217 172 170 187 171 170 148 139 155 152 146 141 136 127 102 98 124 108 60 94 131 159 218 192 142 126 140 155 144 146 145 149 154 145 147 160
263 184 162 219 259 261 257 234 221 182 182 180 160 151 146 149 158 151 155 158 151 132 110 115 116 103 54 29 118 175 196 166 143 149 164 162 152 137 119 128 140 140 149 156
233 173 167 233 254 311 302 242 207 177 143 133 139 151 159 151 162 166 173 172 166 171 212 136 135 137 165 29 45 38 105 119 133 144 153 159 160 150 134 122 133 148 167 165
221 196 194 225 221 201 231 236 196 166 174 170 156 148 162 169 176 170 180 182 167 174 178 142 136 132 121 100 67 11 82 112 124 144 158 173 171 162 151 141 94 44 70 90
Height
1503 1509 1513 1510 1508 1509 1510 1514 1516 1511 1505 1508 1512 1512 1510 1508 1509 1510 1510 1511 1512 1514 1515 1517 1518 1519 1520 1522 1523 1524 1524 1526 1526 1527 1527 1527 1527 1528 1528 1528 1528 1528 1528 1528
1508 1511 1504 1502 1503 1505 1508 1513 1514 1509 1504 1507 1511 1512 1508 1506 1506 1507 1508 1509 1510 1511 1513 1514 1516 1517 1519 1520 1521 1522 1523 1524 1525 1525 1526 1527 1527 1527 1527 1528 1528 1528 1528 1528
1509 1504 1499 1501 1503 1505 1507 1511 1511 1510 1506 1506 1510 1514 1509 1505 1504 1505 1505 1506 1507 1508 1510 1512 1514 1515 1517 1518 1519 1521 1522 1523 1524 1524 1525 1526 1526 1526 1526 1526 1527 1527 1527 1527
1504 1498 1498 1500 1502 1503 1510 1502 1503 1505 1512 1519 1513 1527 1512 1506 1504 1502 1502 1503 1504 1506 1507 1509 1511 1513 1515 1516 1518 1519 1520 1521 1522 1523 1523 1524 1524 1524 1524 1525 1526 1526 1527 1527
1503 1497 1498 1500 1498 1498 1502 1498 1500 1503 1510 1517 1515 1524 1517 1506 1505 1501 1499 1499 1501 1503 1505 1506 1508 1510 1512 1514 1516 1517 1519 1520 1521 1521 1522 1523 1523 1523 1524 1524 1525 1525 1525 1525
1498 1494 1494 1495 1493 1494 1495 1499 1503 1508 1515 1527 1517 1522 1519 1508 1501 1497 1496 1497 1498 1500 1502 1504 1506 1508 1510 1512 1514 1515 1516 1518 1519 1520 1521 1521 1522 1522 1523 1523 1523 1524 1524 1524
1502 1496 1492 1491 1495 1495 1498 1513 1526 1527 1532 1529 1513 1516 1513 1498 1494 1492 1493 1494 1496 1498 1500 1502 1504 1506 1508 1510 1512 1513 1514 1515 1517 1518 1519 1519 1520 1521 1521 1521 1522 1522 1522 1523
1511 1510 1494 1490 1493 1498 1500 1509 1527 1534 1534 1526 1512 1515 1505 1493 1491 1490 1491 1492 1495 1496 1498 1499 1501 1503 1505 1507 1509 1511 1512 1513 1514 1516 1517 1518 1518 1519 1520 1520 1520 1520 1521 1521
1510 1507 1491 1488 1487 1492 1500 1506 1506 1519 1520 1525 1519 1509 1500 1493 1492 1491 1491 1492 1493 1495 1496 1498 1500 1502 1503 1505 1507 1508 1510 1511 1512 1513 1514 1515 1516 1517 1518 1518 1518 1518 1519 1520
1499 1505 1494 1489 1488 1488 1492 1497 1509 1517 1526 1531 1521 1513 1508 1498 1495 1492 1492 1492 1492 1493 1495 1496 1498 1500 1502 1503 1505 1507 1508 1509 1510 1511 1512 1513 1514 1514 1515 1516 1516 1517 1517 1517
1495 1504 1501 1494 1494 1495 1495 1497 1503 1513 1517 1526 1528 1518 1494 1493 1491 1492 1491 1491 1491 1492 1493 1495 1496 1498 1500 1501 1503 1505 1506 1507 1508 1509 1510 1511 1511 1512 1513 1513 1514 1514 1514 1515
1495 1504 1508 1499 1489 1486 1489 1493 1501 1514 1516 1517 1522 1515 1488 1488 1488 1489 1489 1490 1490 1491 1492 1493 1495 1496 1498 1499 1501 1502 1503 1505 1506 1507 1508 1508 1509 1510 1510 1510 1511 1511 1512 1512
1494 1504 1513 1508 1502 1492 1490 1490 1493 1501 1511 1517 1520 1511 1489 1488 1488 1488 1489 1489 1489 1490 1491 1492 1493 1495 1496 1497 1498 1500 1501 1502 1503 1504 1505 1505 1506 1507 1507 1507 1508 1508 1509 1509
1491 1502 1509 1513 1506 1497 1494 1490 1490 1498 1510 1512 1508 1502 1492 1489 1488 1488 1488 1488 1488 1488 1489 1490 1491 1493 1494 1495 1496 1497 1498 1499 1500 1501 1502 1502 1503 1503 1504 1504 1505 1505 1506 1506
1491 1500 1499 1498 1494 1493 1491 1490 1489 1493 1496 1502 1498 1495 1490 1487 1486 1486 1486 1486 1487 1488 1488 1489 1490 1491 1492 1493 1493 1494 1495 1496 1497 1498 1498 1499 1500 1500 1501 1501 1502 1502 1503 1503
1492 1498 1498 1497 1492 1491 1491 1489 1487 1487 1488 1491 1491 1491 1484 1483 1483 1484 1485 1485 1485 1486 1487 1488 1488 1489 1490 1490 1491 1491 1492 1493 1494 1494 1495 1495 1496 1496 1497 1498 1498 1499 1499 1500
1494 1498 1502 1505 1497 1493 1497 1488 1486 1486 1483 1485 1490 1487 1482 1483 1483 1483 1483 1483 1483 1484 1485 1486 1486 1487 1487 1488 1488 1489 1489 1490 1490 1491 1491 1492 1492 1492 1493 1494 1495 1495 1495 1496
1492 1497 1504 1505 1502 1507 1493 1481 1480 1481 1481 1480 1480 1480 1480 1480 1480 1481 1482 1482 1482 1483 1483 1484 1484 1484 1485 1486 1486 1486 1487 1487 1487 1487 1488 1488 1489 1489 1489 1490 1491 1491 1492 1492
1484 1492 1502 1507 1507 1500 1488 1480 1479 1481 1483 1479 1479 1478 1479 1479 1480 1481 1481 1481 1481 1481 1481 1482 1482 1483 1483 1483 1483 1483 1483 1484 1484 1484 1484 1484 1485 1485 1486 1486 1487 1487 1488 1488
1483 1486 1497 1503 1504 1503 1488 1477 1475 1479 1486 1478 1476 1477 1478 1478 1484 1482 1480 1480 1480 1480 1479 1480 1480 1481 1481 1481 1481 1481 1480 1480 1480 1480 1481 1481 1482 1482 1482 1482 1483 1484 1484 1485
1489 1492 1496 1500 1501 1493 1479 1474 1475 1487 1484 1476 1475 1475 1476 1476 1478 1478 1477 1478 1478 1478 1478 1478 1478 1478 1479 1479 1479 1478 1478 1477 1477 1477 1478 1478 1478 1478 1478 1479 1480 1480 1481 1482
1487 1491 1495 1497 1499 1493 1474 1474 1477 1476 1472 1473 1473 1473 1473 1474 1475 1475 1476 1476 1477 1477 1476 1476 1476 1476 1477 1476 1476 1475 1475 1475 1475 1475 1475 1475 1475 1475 1475 1476 1476 1477 1478 1478
1481 1481 1482 1484 1483 1473 1470 1470 1470 1470 1471 1471 1471 1471 1472 1472 1473 1473 1474 1474 1475 1475 1474 1475 1475 1474 1474 1474 1474 1473 1472 1473 1472 1472 1472 1472 1472 1472 1472 1473 1473 1474 1474 1475
1476 1473 1476 1477 1473 1470 1469 1468 1469 1469 1469 1469 1470 1470 1470 1470 1470 1471 1472 1472 1472 1472 1473 1473 1472 1472 1472 1472 1471 1471 1470 1470 1470 1470 1470 1470 1470 1470 1470 1470 1471 1471 1471 1471
1472 1471 1474 1474 1471 1469 1468 1467 1468 1468 1468 1468 1469 1469 1469 1469 1469 1469 1469 1469 1470 1470 1471 1471 1470 1470 1470 1469 1469 1469 1468 1468 1467 1467 1467 1467 1467 1467 1467 1468 1468 1468 1469 1469
1468 1469 1471 1470 1466 1467 1466 1466 1466 1466 1466 1466 1467 1467 1468 1468 1467 1467 1468 1468 1468 1469 1469 1468 1468 1468 1467 1467 1467 1466 1466 1466 1465 1465 1464 1464 1465 1465 1465 1465 1466 1466 1467 1467